EW5040 Weather Reports


Display with metric or nautical units.
time (UTC)temp
F
wind
direction
speed
MPH
gust
MPH
rain 1hr
in
rain 24hr
in
rain mn
in
humidity
%
barometer
mb
20260509054510 39 156 0.0 0.0 0.00 0.05 0.00 93 1008.9
20260509053023 39 156 0.0 1.0 0.00 0.05 0.00 93 1009.1
20260509051508 39 156 0.0 0.0 0.00 0.05 0.00 93 1009.3
20260509050009 39 156 0.0 2.0 0.00 0.05 0.00 93 1009.3
20260509044504 39 156 0.0 0.0 0.00 0.05 0.00 92 1009.6
20260509043004 39 156 0.0 0.0 0.00 0.05 0.00 92 1009.6
20260509041501 39 156 0.0 2.0 0.00 0.05 0.00 91 1009.7
20260509040100 39 156 0.0 0.0 0.00 0.05 0.00 89 1009.8
20260509034603 39 156 0.0 0.0 0.00 0.05 0.05 89 1009.9
20260509033057 39 156 0.0 0.0 0.00 0.05 0.05 87 1010.1
20260509031557 40 156 0.0 0.0 0.00 0.05 0.05 86 1010.2
20260509030057 40 156 0.0 0.0 0.00 0.05 0.05 86 1010.3
20260509024556 41 156 0.0 0.0 0.00 0.05 0.05 85 1010.4
20260509023055 41 156 0.0 0.0 0.00 0.05 0.05 83 1010.4
20260509021556 42 156 0.0 0.0 0.00 0.05 0.05 83 1010.4
20260509020055 43 156 0.0 0.0 0.00 0.05 0.05 82 1010.3
20260509014554 44 156 0.0 0.0 0.00 0.05 0.05 80 1010.1
20260509013054 45 156 0.0 0.0 0.00 0.05 0.05 78 1010.0
20260509011554 46 156 0.0 0.0 0.00 0.05 0.05 75 1009.8
20260509010052 47 156 0.0 1.0 0.00 0.05 0.05 73 1010.0
20260509004550 48 156 0.0 0.0 0.00 0.05 0.05 69 1009.8
20260509003049 49 156 0.0 1.0 0.00 0.05 0.05 66 1009.8
20260509001547 50 156 0.0 2.0 0.00 0.05 0.05 61 1009.8
20260509000045 50 156 1.0 6.0 0.00 0.05 0.05 57 1009.7
20260508234547 50 142 0.0 3.0 0.00 0.05 0.05 56 1009.6
20260508233045 51 140 1.0 4.0 0.00 0.05 0.05 53 1009.6
20260508231604 52 140 0.0 4.0 0.00 0.05 0.05 47 1009.6
20260508230056 52 177 2.0 7.0 0.00 0.05 0.05 44 1009.6
20260508224542 53 242 2.0 6.0 0.00 0.05 0.05 44 1009.6
20260508223141 53 172 3.0 7.0 0.00 0.05 0.05 44 1009.7
20260508221540 54 237 2.0 9.0 0.00 0.05 0.05 42 1009.8
20260508220042 55 176 1.0 6.0 0.00 0.05 0.05 46 1009.8
20260508214550 54 157 4.0 9.0 0.00 0.05 0.05 42 1009.9
20260508213046 55 191 3.0 9.0 0.00 0.05 0.05 41 1009.9
20260508211541 55 222 2.0 7.0 0.00 0.05 0.05 45 1009.9
20260508210035 55 167 6.0 11.0 0.00 0.05 0.05 47 1010.0
20260508204534 55 214 6.0 10.0 0.00 0.05 0.05 44 1010.0
20260508203032 55 207 3.0 9.0 0.00 0.05 0.05 46 1010.1
20260508201530 55 203 5.0 10.0 0.00 0.05 0.05 43 1010.2
20260508200127 56 188 4.0 10.0 0.00 0.05 0.05 46 1010.5
20260508194524 56 118 1.0 11.0 0.00 0.05 0.05 55 1010.7
20260508193028 55 221 4.0 8.0 0.00 0.05 0.05 52 1010.9
20260508191534 55 172 3.0 8.0 0.00 0.05 0.05 54 1011.2
20260508190028 55 192 5.0 11.0 0.00 0.05 0.05 59 1011.3
20260508184522 55 204 4.0 12.0 0.00 0.05 0.05 62 1011.4
20260508183015 54 157 6.0 10.0 0.00 0.05 0.05 59 1011.6
20260508181511 54 232 4.0 10.0 0.00 0.05 0.05 65 1011.6
20260508180010 53 132 6.0 13.0 0.00 0.05 0.05 66 1011.6
20260508174508 52 219 5.0 10.0 0.00 0.05 0.05 69 1011.7
20260508173008 53 175 4.0 12.0 0.00 0.05 0.05 70 1011.8
20260508171507 53 194 5.0 11.0 0.00 0.05 0.05 68 1012.0
20260508170008 53 180 6.0 12.0 0.00 0.05 0.05 69 1012.0
20260508164503 52 166 6.0 13.0 0.00 0.05 0.05 69 1012.1
20260508163002 52 159 5.0 11.0 0.01 0.05 0.05 72 1012.2
20260508161500 52 211 2.0 8.0 0.01 0.05 0.05 76 1012.3
20260508160059 52 216 6.0 11.0 0.01 0.05 0.05 69 1012.4
20260508154604 51 152 3.0 10.0 0.01 0.05 0.05 74 1012.4
20260508153054 51 218 2.0 10.0 0.00 0.04 0.04 74 1012.5
20260508151552 50 167 4.0 8.0 0.00 0.04 0.04 76 1012.4
20260508150048 49 148 4.0 9.0 0.00 0.04 0.04 77 1012.6
20260508144546 48 227 2.0 6.0 0.00 0.04 0.04 84 1012.5
20260508143042 48 101 1.0 5.0 0.00 0.04 0.04 80 1012.5
20260508141540 48 187 2.0 6.0 0.00 0.04 0.04 80 1012.4
20260508140037 47 304 1.0 6.0 0.00 0.04 0.04 86 1012.4
20260508134532 45 234 1.0 2.0 0.00 0.04 0.04 92 1012.4
20260508133026 43 163 0.0 3.0 0.00 0.04 0.04 93 1012.4
20260508131524 42 163 0.0 3.0 0.00 0.04 0.04 93 1012.4
20260508130022 42 316 1.0 2.0 0.00 0.04 0.04 93 1012.3
20260508124519 41 316 0.0 2.0 0.00 0.04 0.04 93 1012.3
20260508123017 41 316 1.0 2.0 0.00 0.04 0.04 93 1012.4
20260508121517 41 316 0.0 1.0 0.00 0.04 0.04 92 1012.2
20260508120030 41 316 0.0 3.0 0.02 0.04 0.04 92 1012.2
20260508114514 41 297 0.0 4.0 0.03 0.04 0.04 92 1012.0
20260508113014 41 304 1.0 8.0 0.03 0.04 0.04 91 1012.1
20260508111508 41 286 1.0 7.0 0.03 0.04 0.04 91 1012.2
20260508110005 42 275 1.0 8.0 0.01 0.02 0.02 91 1012.0
20260508104504 42 236 0.0 2.0 0.01 0.01 0.01 91 1011.5
20260508103004 42 236 0.0 1.0 0.01 0.01 0.01 91 1011.3
20260508101503 42 306 0.0 4.0 0.01 0.01 0.01 91 1011.1
20260508100002 42 305 1.0 5.0 0.01 0.01 0.01 91 1011.3
20260508094500 42 282 0.0 0.0 0.00 0.00 0.00 91 1011.0
20260508093002 42 282 0.0 0.0 0.00 0.00 0.00 90 1011.0
20260508091612 42 282 0.0 0.0 0.00 0.00 0.00 90 1011.0
20260508090111 43 282 0.0 0.0 0.00 0.00 0.00 89 1011.2
20260508084558 43 282 0.0 0.0 0.00 0.00 0.00 89 1011.2
20260508083108 43 282 0.0 0.0 0.00 0.00 0.00 88 1011.2
20260508081601 43 282 0.0 0.0 0.00 0.00 0.00 88 1011.2
20260508080100 43 261 1.0 5.0 0.00 0.00 0.00 88 1011.4
20260508074553 42 229 2.0 12.0 0.00 0.00 0.00 94 1011.4
20260508073052 42 247 2.0 9.0 0.00 0.00 0.00 96 1011.4
20260508071546 41 234 0.0 3.0 0.00 0.00 0.00 95 1011.6
20260508070045 40 202 0.0 1.0 0.00 0.00 0.00 95 1011.5
20260508064544 40 202 0.0 2.0 0.00 0.00 0.00 95 1011.4
20260508063045 40 202 0.0 2.0 0.00 0.00 0.00 95 1011.5
20260508061542 40 192 0.0 3.0 0.00 0.00 0.00 95 1011.6
20260508060142 40 206 0.0 4.0 0.00 0.00 0.00 95 1011.6